This demonstration page uses our WeatherBlox Daily Observations layout. Learn more.

36.19886, -115.1175

Hourly Observations for July 17, 2019

Temp ( °F °C ) Dew Point ( °F °C ) Humidity (%) Winds ( mph kmh ) Pressure ( in mb ) Visibility ( mi km ) Precip ( " mm )
12:53 am 00:53 Clear 88 31.1 27 -2.8 11 11 S 12 19 29.71 1006 10 16.09344 0 0
1:53 am 01:53 Clear 88 31.1 30 -1.1 12 12 S 8 13 29.71 1006 10 16.09344 0 0
2:53 am 02:53 Clear 87 30.6 33 0.6 14 14 WSW 5 7 29.71 1006 10 16.09344 0 0
3:53 am 03:53 Clear 85 29.4 33 0.6 15 15 S 14 22 29.71 1006 10 16.09344 0 0
4:53 am 04:53 Clear 85 29.4 36 2.2 17 17 SSW 13 20 29.74 1007 10 16.09344 0 0
5:53 am 05:53 Sunny 83 28.3 38 3.3 20 20 SSW 12 19 29.77 1008 10 16.09344 0 0
6:53 am 06:53 Sunny 84 28.9 38 3.3 19 19 S 8 13 29.8 1009 10 16.09344 0 0
7:53 am 07:53 Sunny 87 30.6 37 2.8 17 17 SSE 7 11 29.83 1010 10 16.09344 0 0
8:53 am 08:53 Sunny 92 33.3 33 0.6 12 12 SSW 13 20 29.83 1010 10 16.09344 0 0
9:53 am 09:53 Sunny 95 35 32 0 11 11 S 13 20 29.83 1010 10 16.09344 0 0
10:53 am 10:53 Sunny 98 36.7 26 -3.3 8 8 SW 18 30 29.83 1010 10 16.09344 0 0
11:53 am 11:53 Sunny 99 37.2 32 0 9 9 SW 17 28 29.83 1010 10 16.09344 0 0
12:53 pm 12:53 Sunny 100 37.8 30 -1.1 8 8 W 16 26 29.83 1010 10 16.09344 0 0
1:53 pm 13:53 Sunny 101 38.3 30 -1.1 8 8 SSW 14 22 29.83 1010 10 16.09344 0 0
2:53 pm 14:53 Sunny 103 39.4 25 -3.9 6 6 SW 10 17 29.8 1009 10 16.09344 0 0
3:53 pm 15:53 Sunny 104 40 22 -5.6 5 5 S 16 26 29.77 1008 10 16.09344 0 0
4:53 pm 16:53 Sunny 103 39.4 14 -10 4 4 WSW 16 26 29.74 1007 10 16.09344 0 0
5:53 pm 17:53 Sunny 102 38.9 17 -8.3 5 5 WSW 16 26 29.74 1007 10 16.09344 0 0
6:53 pm 18:53 Sunny 100 37.8 24 -4.4 7 7 SSW 17 28 29.74 1007 10 16.09344 0 0
7:53 pm 19:53 Sunny 98 36.7 26 -3.3 8 8 SW 13 20 29.77 1008 10 16.09344 0 0
8:53 pm 20:53 Clear 96 35.6 29 -1.7 9 9 WSW 13 20 29.77 1008 10 16.09344 0 0
9:53 pm 21:53 Clear 95 35 28 -2.2 9 9 WSW 13 20 29.77 1008 10 16.09344 0 0
10:53 pm 22:53 Clear 94 34.4 28 -2.2 9 9 W 8 13 29.8 1009 10 16.09344 0 0
11:53 pm 23:53 Clear 90 32.2 28 -2.2 11 11 SSW 8 13 29.8 1009 10 16.09344 0 0

Powered by AerisWeather